GFSNE_700_spd_105.txt.gz
Wind_Speed
29 28 30 30 37 36 34 34 35 40 41 37 41 36 40 40 38 42 39 42 36 37 38 34 33 38 39 43 47 50 53 53 54 54 51 52 53 50
25 27 32 34 36 33 30 31 34 38 45 41 40 41 41 43 42 36 42 37 39 38 44 45 46 41 42 39 44 47 53 53 53 59 60 57 50 52
25 28 28 29 30 29 30 34 37 39 45 46 45 44 47 40 43 40 44 47 46 45 41 45 49 50 45 49 47 47 55 59 61 66 63 67 67 68
20 26 28 29 29 30 32 34 37 38 44 47 45 49 52 41 48 57 51 47 51 51 52 50 50 48 54 51 46 51 56 60 62 60 68 67 74 78
23 28 31 31 31 33 34 35 38 39 43 41 50 37 55 47 51 49 58 54 57 55 55 55 53 52 50 50 50 44 51 56 59 58 59 66 70 77
28 29 31 32 33 33 33 38 39 41 45 48 41 43 57 53 56 56 62 59 57 57 57 56 54 53 52 54 55 56 52 52 54 55 55 58 62 66
25 27 29 31 32 35 40 40 40 43 42 46 54 52 60 55 61 63 62 58 55 57 56 56 56 57 56 56 56 55 53 52 52 53 55 56 56 59
28 34 37 38 39 38 44 54 43 44 49 48 53 60 55 63 62 58 58 57 56 54 53 50 49 50 51 53 53 52 52 52 53 53 55 56 57 57
34 34 38 40 52 54 53 39 45 41 45 54 56 58 62 57 56 56 57 57 57 57 59 60 56 56 56 57 56 56 55 55 54 55 57 58 58 58
32 35 42 48 52 52 37 38 49 48 50 53 53 53 53 53 55 56 57 57 58 58 62 63 64 64 61 58 58 57 58 58 59 60 60 60 61 60
37 44 50 49 33 43 46 47 50 53 55 51 50 49 50 52 54 55 55 56 58 56 59 61 63 64 63 61 60 59 58 58 58 57 57 57 55 52
44 41 32 40 41 42 45 47 46 45 44 45 48 50 52 53 55 57 58 58 59 60 57 58 59 61 66 64 61 60 58 58 57 56 56 54 49 46
34 39 43 47 45 43 40 40 41 43 46 48 50 51 52 52 52 53 52 53 54 53 52 54 54 53 52 58 57 54 53 54 53 53 52 50 47 46
42 40 38 36 36 37 40 42 44 47 48 49 50 51 51 51 50 50 49 49 48 49 49 47 49 49 50 50 50 50 49 46 46 43 44 47 49 51
29 30 32 35 37 40 43 45 47 48 48 48 49 49 49 48 49 48 46 45 44 43 42 42 42 43 41 42 43 42 42 41 40 42 39 35 36 40
28 30 32 35 38 41 43 45 46 47 47 48 48 47 46 45 45 45 45 45 42 39 37 36 36 36 37 36 36 37 36 38 40 42 42 36 32 31
28 31 33 35 37 39 41 42 43 43 43 44 44 44 44 44 44 43 43 42 42 40 37 35 34 33 33 35 34 34 36 34 34 35 31 27 22 25
30 32 34 35 37 39 40 40 40 41 41 41 41 42 43 43 43 41 40 38 37 36 35 34 33 32 30 28 27 30 29 31 32 31 31 32 22 18
30 32 34 36 37 38 38 38 38 37 38 39 41 42 42 41 39 37 35 34 33 32 31 31 31 32 33 30 25 25 28 25 27 27 26 27 26 18
30 32 33 34 35 35 35 35 35 36 38 39 40 39 39 38 35 33 32 32 31 30 29 28 28 29 31 32 29 23 23 26 25 24 21 18 21 19
30 31 31 32 32 32 33 34 35 36 37 37 38 38 37 36 32 30 29 29 29 29 28 27 27 27 28 29 27 20 14 17 23 22 15 9 8 11
29 30 31 31 31 31 31 32 33 34 35 35 35 35 34 33 30 27 27 27 27 27 27 25 25 25 25 26 24 22 17 12 16 14 7 2 7 15
28 29 29 28 28 28 29 31 32 33 32 32 32 32 31 30 26 25 25 25 26 25 25 24 22 21 21 23 22 18 14 12 8 6 8 13 18 18

GFSNE_700_spd_108.txt.gz
Wind_Speed
41 40 31 23 24 25 29 29 31 37 31 24 29 28 32 35 34 36 38 43 39 34 37 42 44 41 45 44 44 43 47 45 45 46 52 56 54 54
24 35 30 25 23 26 30 34 37 38 39 28 28 29 32 35 36 39 42 46 39 36 46 45 46 41 45 44 47 52 50 51 47 49 49 55 52 57
20 21 21 24 26 28 28 32 36 37 40 34 34 33 36 39 42 42 35 40 40 46 49 48 47 53 53 52 53 55 53 49 54 55 56 58 59 57
20 23 23 23 27 30 33 34 34 33 37 40 39 39 35 41 46 48 38 44 53 47 58 52 54 56 56 56 56 57 58 60 60 61 57 60 61 62
22 24 25 28 29 32 32 33 34 35 38 40 44 42 45 50 46 46 47 52 53 57 58 60 60 56 56 57 58 59 59 59 60 58 62 61 62 63
27 26 27 28 29 31 34 37 38 39 41 44 48 48 53 49 50 54 51 54 57 55 61 61 55 55 56 57 58 57 55 55 56 56 57 58 64 66
24 28 28 28 32 36 36 36 39 40 48 47 50 49 50 52 56 54 62 58 57 62 60 58 58 59 59 57 57 57 57 57 58 59 60 62 63 66
28 30 32 32 32 40 49 44 43 44 51 55 47 48 47 57 58 58 58 60 61 61 61 58 57 58 59 59 60 61 62 62 63 64 64 64 63 63
32 32 32 39 41 45 44 54 56 52 53 43 50 48 54 55 55 56 57 57 59 62 63 64 63 63 62 61 61 65 64 64 65 65 65 65 65 64
32 35 44 46 45 48 52 56 37 37 48 47 46 48 50 51 52 54 55 57 59 60 66 68 68 69 68 64 61 63 64 64 65 66 67 67 68 69
41 42 43 56 52 46 44 35 41 42 44 44 44 45 47 50 52 54 55 58 60 58 61 62 65 68 66 65 63 59 57 58 60 62 64 66 67 67
39 46 52 45 41 34 40 37 35 39 41 42 45 47 49 50 53 55 57 59 59 60 57 61 60 61 65 62 58 56 55 54 54 55 57 57 59 61
43 45 37 33 34 33 32 35 38 41 43 44 45 46 48 50 51 52 53 54 55 55 55 57 59 58 57 61 59 54 53 52 50 49 49 52 53 51
41 36 33 31 30 30 35 39 39 41 43 45 46 46 47 48 48 49 49 50 51 53 54 53 54 53 54 54 54 50 47 47 48 46 44 43 43 44
31 29 25 27 27 30 36 39 40 42 43 44 45 47 48 49 50 50 49 49 48 48 47 47 47 48 47 48 49 45 46 45 44 44 43 42 40 35
18 20 22 26 31 35 37 39 41 42 43 44 45 45 46 46 47 49 50 49 47 43 41 42 41 42 42 42 43 42 42 43 42 40 41 39 35 30
19 22 26 29 33 35 36 38 39 41 42 42 43 44 45 46 47 48 48 47 47 46 41 38 37 37 38 39 39 37 39 38 37 38 39 37 31 27
21 25 27 28 30 33 35 36 37 38 40 40 42 43 44 45 46 46 46 44 42 39 38 37 37 36 35 34 36 34 33 36 35 35 35 35 29 21
22 24 25 27 30 32 33 34 35 36 38 39 40 42 43 44 44 44 42 40 36 35 35 36 36 37 37 34 28 30 35 34 36 33 30 26 24 14
22 23 25 28 30 31 32 33 33 35 36 37 39 40 41 42 42 40 38 35 33 33 33 32 32 33 34 36 34 25 27 35 36 32 23 15 14 7
23 25 27 28 29 29 30 30 31 32 34 36 37 37 38 39 38 36 33 30 30 31 31 29 29 30 32 33 32 27 22 25 30 29 19 10 5 7
22 25 26 27 26 26 27 28 30 31 32 32 32 34 35 36 36 34 31 28 28 29 29 27 26 27 29 31 31 29 22 16 16 18 12 11 14 15
24 24 24 24 24 25 27 27 28 29 29 28 30 30 30 31 32 33 30 28 28 27 26 23 22 23 25 28 28 23 21 18 20 22 18 20 20 21

GFSNE_700_spd_111.txt.gz
Wind_Speed
41 44 41 39 37 35 33 26 28 32 27 28 26 20 22 26 28 30 38 38 38 39 40 44 46 39 42 46 46 43 46 48 50 50 52 53 51 53
39 41 33 34 36 35 24 30 31 31 35 27 25 25 27 28 31 34 37 40 43 42 45 44 39 40 48 50 51 51 52 56 56 56 58 61 59 58
38 32 30 27 27 33 27 28 29 28 33 33 31 32 34 34 36 36 37 38 42 41 45 41 47 50 52 52 57 53 59 61 61 60 62 64 63 60
36 22 18 19 22 26 29 25 30 33 38 38 32 34 35 38 41 43 42 44 45 43 44 48 56 56 59 60 56 61 64 62 61 62 64 66 66 69
25 22 20 23 28 27 28 32 36 37 36 37 35 41 39 44 48 47 46 44 51 54 53 57 59 61 61 60 64 64 65 64 64 64 65 67 68 67
24 24 25 26 28 32 36 33 33 34 37 38 38 40 42 50 46 48 50 53 58 54 57 60 62 61 63 64 65 65 65 65 64 64 65 67 67 68
30 30 31 31 32 30 33 32 36 39 38 38 46 47 46 51 52 55 55 53 55 58 58 58 61 63 64 63 63 65 67 68 67 68 69 69 70 71
28 29 28 28 30 32 33 36 36 41 46 41 45 51 54 53 57 53 54 56 58 56 60 57 60 63 65 65 66 69 71 71 70 70 70 72 73 74
28 28 30 32 32 36 33 40 52 49 49 48 55 41 43 45 47 48 50 53 56 60 63 65 65 67 67 65 66 67 68 69 70 71 72 71 71 73
31 32 33 38 36 42 47 46 51 53 55 47 41 45 41 43 45 49 52 53 56 60 65 69 69 70 69 67 66 63 62 63 65 67 67 68 69 69
33 39 34 38 39 43 44 47 57 41 36 39 41 40 43 45 47 51 53 56 58 57 60 65 66 69 68 67 66 61 61 61 61 60 60 60 61 63
35 35 41 42 43 47 52 46 38 40 35 35 37 41 45 48 51 53 56 57 59 61 59 64 63 65 74 73 69 62 59 57 56 55 53 52 52 55
42 43 52 49 52 49 41 38 34 30 30 35 40 44 46 48 50 52 54 56 57 58 61 64 66 66 65 69 67 59 56 53 51 48 46 46 45 46
51 48 43 38 37 31 32 26 25 31 35 39 41 43 45 47 48 49 51 53 55 58 59 60 61 60 60 60 60 55 49 48 48 48 48 46 44 42
42 33 31 25 21 22 24 28 31 33 35 37 41 43 45 46 47 49 51 51 51 52 52 52 53 52 50 51 53 50 50 46 47 49 48 46 44 41
23 20 18 19 19 22 25 27 30 34 36 39 41 43 44 45 47 50 51 51 49 46 45 45 44 44 45 45 48 47 44 48 46 45 47 44 41 39
16 15 14 18 22 24 26 29 31 34 36 38 39 39 41 43 46 47 49 49 49 47 42 37 37 40 42 44 44 41 42 44 44 45 43 38 33 33
14 16 17 19 22 24 27 30 32 34 35 36 37 39 42 43 44 45 45 45 42 38 36 38 40 39 38 38 42 41 40 43 42 41 40 37 30 25
14 17 19 20 23 26 28 30 31 33 34 35 37 38 39 41 41 41 41 40 36 34 35 38 40 42 42 39 35 40 42 42 43 38 34 29 28 22
16 17 19 21 24 25 27 28 30 32 32 33 35 36 37 38 38 39 39 38 35 34 34 35 36 37 40 43 40 29 31 39 41 32 24 19 19 15
15 17 20 22 23 25 27 28 28 29 30 31 33 33 33 34 35 37 37 35 33 33 32 31 31 33 38 37 36 32 29 28 31 27 20 19 20 19
17 19 21 23 24 24 25 25 27 27 28 29 29 29 30 31 33 35 35 33 30 30 28 27 28 31 32 32 33 31 29 21 20 25 24 25 23 21
18 20 22 22 22 23 24 25 25 26 27 27 26 26 27 29 31 33 34 32 28 26 23 23 25 25 25 26 26 29 33 36 31 23 23 23 27 28

GFSNE_700_spd_114.txt.gz
Wind_Speed
51 47 46 52 45 43 37 48 47 34 23 19 22 24 26 26 24 22 27 31 37 39 41 42 42 44 48 43 50 38 41 48 49 53 54 53 54 55
46 41 45 47 44 44 42 40 30 30 28 26 26 29 26 28 27 28 31 33 36 38 41 42 41 46 47 43 42 48 49 56 59 60 60 58 58 61
38 40 37 43 34 34 31 32 31 28 29 27 24 29 32 32 33 30 33 36 41 42 44 46 49 51 48 49 52 55 59 63 63 64 63 62 64 66
31 33 30 31 32 28 21 22 27 29 32 22 30 34 36 34 34 36 38 44 46 45 48 48 45 53 54 59 55 59 65 65 68 66 65 66 68 67
19 28 30 33 32 26 25 26 24 26 27 30 36 37 35 37 38 41 40 46 46 44 52 54 52 55 60 59 63 65 66 65 67 67 67 68 69 69
40 24 25 26 29 26 25 25 28 33 35 37 36 38 36 39 44 44 43 52 49 55 56 52 56 55 58 60 63 64 66 68 69 70 72 73 74 75
26 27 27 26 29 29 28 33 34 34 35 40 37 38 40 43 41 44 47 50 50 50 50 52 55 56 57 59 63 65 66 68 71 73 75 78 78 78
29 31 31 32 32 33 32 34 32 37 35 38 40 46 47 44 50 49 45 48 45 50 50 52 56 57 58 61 65 66 69 70 72 75 77 78 78 79
31 30 31 31 30 30 30 33 32 38 36 41 42 46 50 49 49 45 45 45 47 50 53 56 58 58 59 60 61 61 63 66 69 72 74 75 75 75
28 29 29 26 28 33 31 36 39 40 43 46 45 50 48 44 42 41 42 46 51 55 57 60 61 62 63 62 62 61 63 65 67 68 68 68 68 68
29 29 28 33 32 33 40 42 45 49 45 43 45 39 39 38 38 43 45 47 48 50 55 58 61 66 66 66 65 63 64 64 65 63 60 57 55 56
29 29 29 32 35 40 41 43 50 47 41 37 35 32 32 37 39 42 45 47 50 53 56 60 61 64 71 71 69 65 64 61 57 52 50 49 48 50
30 34 33 36 41 45 52 53 47 36 28 26 27 30 34 37 41 45 46 47 50 52 56 61 63 63 64 69 67 60 56 55 52 50 48 46 45 45
34 41 46 48 49 51 39 27 24 23 24 26 28 31 35 38 40 41 43 47 51 54 56 57 59 59 59 59 58 52 49 50 53 52 51 49 45 43
44 45 45 36 25 20 22 23 22 23 25 27 29 32 34 36 39 41 44 45 47 49 50 51 51 49 46 47 50 49 53 54 52 52 50 46 44 41
43 29 19 19 20 20 16 18 20 22 25 27 30 33 36 37 38 40 42 42 42 40 43 43 41 39 40 41 44 46 47 51 47 46 44 40 38 37
14 16 18 18 15 15 18 19 21 23 25 28 31 32 34 36 38 39 42 43 44 43 37 33 34 36 37 37 40 39 42 45 48 44 40 42 37 35
18 12 9 11 13 15 17 19 22 24 26 27 29 31 32 34 36 38 40 40 39 36 34 36 36 34 30 28 38 39 40 41 43 37 37 36 29 26
6 9 11 13 14 16 18 21 23 24 26 27 29 30 32 34 36 37 37 37 32 30 33 34 33 33 30 32 35 36 39 38 37 33 33 35 33 29
8 11 13 15 16 18 20 22 23 23 24 26 27 29 31 33 34 34 34 33 30 28 29 28 29 29 32 34 35 34 34 33 34 37 35 32 30 30
11 13 14 15 17 18 19 20 22 23 24 26 28 29 29 30 31 32 32 31 28 26 24 23 25 25 24 26 29 34 36 35 36 37 40 39 41 33
11 12 14 15 17 18 20 21 22 23 24 25 26 27 27 27 28 29 30 29 26 23 21 22 19 18 17 22 26 27 28 31 31 30 33 31 32 36
12 13 15 16 17 18 20 21 22 23 23 24 25 24 24 24 26 26 28 28 25 21 17 16 13 13 14 18 21 22 23 23 24 25 24 24 23 26

GFSNE_700_spd_117.txt.gz
Wind_Speed
42 40 39 39 37 41 41 42 51 45 37 34 37 31 27 26 29 23 28 26 24 26 29 34 39 41 43 46 46 42 42 47 48 44 45 53 53 55
45 44 44 46 49 49 45 45 36 39 39 38 39 31 30 30 33 29 32 32 30 29 32 36 38 41 43 44 44 48 49 50 51 51 57 57 62 64
53 56 54 59 52 49 40 49 36 36 41 31 27 31 29 30 29 32 36 36 34 35 37 37 42 46 46 47 48 52 51 55 57 64 60 62 67 67
43 42 47 41 43 37 37 38 30 34 34 31 32 29 30 27 32 36 34 40 40 38 44 43 49 49 49 54 57 52 56 61 64 62 65 68 68 70
44 30 28 32 30 28 33 35 33 25 27 24 30 34 30 31 36 36 41 42 40 46 46 51 50 52 54 58 57 57 59 62 64 67 68 68 69 71
34 34 21 19 24 26 29 25 25 24 23 26 27 31 34 37 41 39 44 42 46 48 49 51 56 56 53 55 56 58 61 64 67 70 72 74 76 77
30 32 27 27 30 28 25 27 28 26 25 27 28 34 38 39 39 42 46 47 46 49 51 53 52 51 53 56 59 59 62 66 69 71 73 74 76 77
23 34 35 27 24 25 25 25 24 25 28 31 35 40 42 43 44 46 46 49 47 48 48 48 48 51 53 56 58 60 63 65 67 70 71 72 74 77
24 24 24 25 25 27 30 30 32 34 36 36 36 41 45 45 47 48 47 47 46 46 46 47 50 52 52 54 56 58 60 62 65 66 68 70 71 73
23 25 28 28 29 32 33 31 28 32 32 37 42 45 49 50 52 46 42 41 42 44 46 49 51 53 52 52 51 53 56 60 61 62 63 63 61 62
27 26 27 29 29 31 25 30 33 35 40 44 44 47 51 52 44 38 34 36 38 43 48 50 52 54 54 54 53 56 59 57 56 55 55 55 55 57
25 26 28 28 32 28 29 32 37 40 46 46 45 42 39 34 33 33 35 39 42 45 46 47 48 53 57 59 56 56 58 57 57 54 52 49 50 52
24 26 29 31 31 35 36 41 42 46 42 32 27 27 28 27 29 32 35 38 41 42 45 47 48 50 52 57 54 54 55 52 49 50 52 51 51 52
26 29 30 33 36 40 44 45 36 24 24 26 27 24 26 28 29 31 34 38 40 41 42 44 47 49 50 52 51 50 42 37 41 47 47 45 45 48
32 36 39 41 42 37 26 20 22 25 21 18 20 22 24 27 29 32 35 36 39 41 41 42 42 42 42 44 46 41 38 35 41 40 38 42 44 44
38 40 37 24 19 20 21 23 15 13 16 19 21 23 25 26 28 29 31 32 33 36 38 37 36 35 33 32 35 32 34 34 32 39 38 36 39 39
30 23 20 20 20 19 14 11 13 15 17 19 22 23 25 26 28 29 31 33 34 32 28 27 27 26 22 27 25 23 25 30 34 38 36 32 38 40
17 17 17 17 11 9 10 11 14 15 18 19 21 23 24 26 27 29 30 31 31 31 28 25 20 11 11 20 20 24 24 27 33 42 38 33 32 34
15 16 11 6 7 10 12 13 15 17 18 20 22 23 24 25 26 26 26 27 28 28 25 22 14 9 11 23 25 24 21 25 29 36 44 41 40 37
8 6 5 8 10 11 12 13 15 17 19 20 21 22 23 23 24 25 25 26 25 22 19 16 7 5 12 18 21 23 21 24 24 29 32 32 33 35
2 5 8 9 10 11 13 15 16 17 18 19 20 20 21 22 22 23 24 24 21 18 14 12 6 3 10 14 17 19 20 20 20 24 25 24 26 27
6 8 9 10 11 12 13 15 16 17 18 18 19 19 20 21 21 22 21 21 20 16 12 9 5 4 9 14 18 19 16 13 17 18 20 22 24 27
8 8 9 10 12 13 14 15 16 17 17 18 19 19 20 20 20 19 20 21 20 16 9 7 7 6 10 15 18 21 20 19 18 19 19 19 20 20

GFSNE_700_spd_123.txt.gz
Wind_Speed
47 50 45 43 40 36 33 33 33 30 30 30 32 33 35 35 35 36 45 43 37 33 33 29 28 34 35 34 34 35 41 45 45 44 48 51 53 55
48 45 44 43 40 40 38 40 35 34 34 33 33 38 40 46 47 46 42 42 43 39 37 33 38 34 37 38 40 40 45 44 47 50 51 53 56 58
52 47 43 42 42 44 40 38 37 37 37 35 35 38 38 43 47 47 39 41 46 39 37 38 38 35 37 36 41 43 45 47 50 52 53 57 59 60
47 43 43 43 47 44 39 40 39 39 40 43 44 45 48 50 41 41 38 41 50 42 39 35 39 42 40 46 45 45 49 53 54 58 58 61 63 62
47 50 48 48 49 41 40 42 45 43 49 56 51 53 52 39 45 39 42 40 37 38 37 40 40 41 48 47 49 53 56 58 60 62 62 63 63 63
46 47 48 49 42 41 39 44 53 53 42 44 41 41 36 36 37 37 33 33 36 36 38 40 44 49 48 53 53 58 61 59 60 59 59 59 59 59
50 53 47 49 46 43 44 50 47 27 34 34 29 30 30 31 31 33 37 35 35 37 41 47 50 51 53 55 57 56 55 54 53 54 54 56 58 61
46 48 49 51 57 51 48 51 41 28 26 30 31 31 33 30 32 36 33 35 39 43 48 50 51 53 52 50 51 49 50 50 50 51 53 55 58 60
32 32 41 45 49 38 43 29 28 30 29 24 24 26 29 32 32 37 41 43 46 48 49 53 49 47 46 46 45 45 46 48 48 49 51 53 55 55
23 27 27 26 32 33 28 30 26 29 25 26 29 31 32 33 38 41 43 45 48 46 46 45 43 39 39 39 40 41 42 43 44 46 47 47 46 44
14 18 15 20 19 20 28 32 24 21 25 28 30 33 34 37 42 43 44 46 46 41 38 37 35 32 35 36 37 36 37 38 38 36 36 36 36 32
12 14 19 23 19 18 18 18 22 24 26 29 30 34 38 41 42 42 41 37 36 35 33 33 34 34 32 34 34 33 33 33 30 27 27 25 22 24
13 11 12 14 15 17 17 21 22 26 30 32 33 37 40 40 36 34 33 31 28 28 30 32 32 33 34 33 31 30 29 25 19 22 20 17 21 27
16 17 19 19 22 24 23 25 27 30 32 37 39 37 34 32 30 27 23 24 25 26 28 29 30 30 30 29 25 23 19 16 14 17 16 18 22 25
21 22 22 22 23 23 26 27 29 34 34 30 27 25 24 22 20 20 22 23 24 26 27 28 28 28 27 23 19 14 9 11 13 15 17 20 23 21
23 21 21 22 24 28 33 33 26 24 22 20 19 18 17 16 18 19 21 23 24 25 25 26 25 24 22 19 15 10 7 9 12 14 17 19 20 25
26 27 28 31 32 30 25 22 17 16 16 16 15 14 15 16 17 20 22 23 23 23 23 23 22 20 17 14 12 10 9 10 13 15 16 19 23 27
36 34 31 29 24 19 16 15 13 13 13 13 13 13 15 16 18 19 21 21 22 23 22 22 20 19 14 11 11 11 11 12 17 18 21 23 25 28
29 20 17 16 15 14 13 13 12 12 11 11 12 14 15 16 18 19 20 20 20 20 20 20 18 16 14 13 13 13 13 14 16 18 21 24 27 29
17 16 14 13 13 13 12 11 10 10 10 11 13 14 16 17 19 19 20 21 21 21 19 17 15 13 13 15 14 15 16 17 18 21 22 25 29 31
14 14 14 13 11 10 10 9 9 10 11 12 14 15 16 17 18 19 20 21 21 20 18 17 15 14 13 14 14 14 14 14 15 17 21 24 27 27
16 14 12 11 10 9 8 8 9 11 12 14 15 16 17 17 18 19 20 20 20 19 19 18 16 15 14 15 14 12 12 12 15 17 19 22 24 25
14 12 11 10 9 8 9 9 10 12 14 14 16 17 17 18 19 20 19 19 19 19 19 18 17 15 14 14 14 13 13 14 15 16 16 19 21 22

GFSNE_700_spd_129.txt.gz
Wind_Speed
33 35 40 43 52 42 41 41 38 39 38 37 34 33 32 31 31 30 27 25 22 22 36 27 28 30 35 29 30 35 31 37 36 36 38 36 39 42
33 39 47 40 51 46 42 40 36 31 34 36 35 33 32 28 28 29 29 28 28 32 31 29 32 32 29 28 33 37 35 35 37 40 37 40 45 46
25 37 45 41 44 55 46 39 35 33 33 26 27 28 28 25 25 29 28 32 30 30 33 39 38 39 34 33 35 35 33 35 39 39 42 45 47 52
16 33 30 37 40 53 50 44 38 38 36 28 26 26 27 28 30 29 31 36 36 37 38 39 42 46 34 32 31 31 34 35 39 42 46 48 53 57
13 18 28 33 43 51 45 50 46 39 36 35 34 31 30 31 30 31 32 34 38 39 44 37 35 35 31 31 33 33 39 42 41 46 51 52 50 48
22 13 12 30 45 42 54 38 44 44 41 41 47 34 32 33 34 36 34 38 42 43 38 30 29 29 31 34 36 40 43 45 46 46 46 46 45 45
22 19 21 22 35 56 56 51 42 48 50 50 48 39 40 37 39 38 35 38 43 32 28 29 31 34 35 36 40 43 44 46 45 44 42 40 43 45
23 22 25 25 31 47 60 60 53 52 55 54 50 39 44 37 44 41 47 34 30 29 31 31 34 33 38 42 45 44 40 42 38 36 39 41 41 42
25 21 27 38 30 41 57 50 46 53 49 46 43 43 40 42 43 36 27 27 29 32 32 32 34 36 43 44 39 39 36 33 35 37 38 39 39 38
26 26 28 32 37 40 53 42 40 43 41 39 39 45 42 48 34 27 30 32 29 29 34 37 36 40 39 37 37 34 32 33 35 36 36 35 34 33
22 25 25 28 40 51 50 45 39 42 40 44 50 40 35 29 29 28 28 26 30 35 34 36 38 37 35 31 28 29 31 33 34 34 33 32 30 24
18 14 18 29 27 35 50 39 48 41 41 40 45 41 37 29 25 26 28 29 30 33 34 32 33 31 26 26 27 30 30 30 30 30 29 28 25 20
12 10 15 21 24 21 33 46 40 41 40 41 36 34 27 24 24 23 25 31 32 30 30 29 24 24 25 25 27 28 28 28 26 27 27 26 25 25
17 12 11 14 18 24 31 34 26 27 30 28 25 22 22 21 22 25 29 31 31 27 23 22 22 22 23 24 25 26 26 25 25 25 25 23 23 24
21 17 15 18 18 21 23 22 22 19 18 19 21 21 23 23 26 33 31 28 23 20 20 20 21 22 22 23 24 24 25 24 25 24 22 22 21 23
23 20 17 19 22 22 19 20 19 24 25 24 26 29 28 28 29 25 22 18 17 19 20 20 21 21 22 23 23 23 24 24 24 21 20 21 23 25
23 21 20 22 20 19 20 25 31 30 23 27 32 31 26 22 20 19 15 16 17 18 18 19 20 22 23 23 23 23 24 22 20 20 19 20 23 23
30 28 28 28 25 26 26 26 29 31 31 29 25 22 20 16 12 12 14 15 16 16 17 19 21 21 21 21 23 23 21 19 20 20 19 17 19 20
29 33 29 32 26 30 33 33 29 26 23 20 18 14 9 10 13 13 13 14 16 17 18 19 20 20 21 20 22 20 21 20 19 19 18 18 18 21
36 36 35 36 31 30 24 21 20 19 19 16 11 12 12 12 11 12 13 15 16 17 17 17 18 18 18 19 22 22 21 19 18 16 18 18 18 20
36 33 27 24 22 21 21 21 20 17 13 13 12 11 10 10 11 12 13 15 15 17 18 18 18 18 18 18 19 19 23 21 18 17 16 15 16 17
24 25 24 22 22 22 21 17 12 12 12 11 9 9 9 10 11 12 13 15 16 17 19 19 19 20 20 19 18 18 20 21 18 17 16 15 15 16
23 23 22 22 21 18 15 13 11 11 10 9 8 8 9 10 11 12 14 15 17 18 18 18 19 19 19 19 19 19 19 17 16 17 18 16 15 15

GFSNE_700_spd_132.txt.gz
Wind_Speed
31 32 30 38 47 38 54 50 46 43 42 37 33 38 38 36 35 36 37 35 30 26 25 20 23 23 24 29 28 27 26 28 30 34 35 33 37 39
30 31 33 33 46 40 58 46 48 48 44 42 37 33 34 35 35 36 36 36 32 30 27 29 27 29 28 33 36 35 30 30 36 36 32 35 39 37
28 28 28 35 48 55 43 56 54 49 50 44 37 36 37 36 36 35 33 34 32 33 32 34 31 32 36 39 39 32 27 29 28 31 34 38 41 43
28 27 28 28 45 42 41 48 56 48 46 42 37 34 37 36 34 28 28 30 29 32 34 36 38 38 41 41 32 31 29 30 29 34 41 42 45 47
26 29 27 28 32 39 43 40 57 52 47 43 40 35 31 33 31 32 35 34 28 31 34 40 39 42 45 44 30 30 30 32 36 40 41 44 47 48
26 27 26 19 30 29 42 46 54 48 48 45 39 39 37 34 33 36 37 33 36 39 40 40 49 50 44 30 30 29 34 35 38 43 45 47 46 44
27 27 25 22 15 31 32 39 60 65 48 47 46 41 41 45 40 34 36 36 40 39 37 43 52 40 32 32 32 32 34 39 43 42 42 43 40 40
26 28 31 25 25 23 31 35 53 39 51 52 45 46 44 40 40 38 40 44 40 35 45 43 43 37 34 32 32 33 40 42 40 41 39 38 39 40
26 30 31 27 26 28 31 32 48 42 36 53 46 44 42 50 48 41 39 38 34 43 43 40 37 34 32 33 36 39 39 39 39 36 35 36 37 37
28 28 28 29 30 25 37 42 42 56 54 44 36 38 39 49 43 39 44 37 45 49 40 34 30 29 35 35 37 40 37 36 33 34 34 34 34 34
28 30 25 33 33 33 33 40 46 56 61 58 51 52 48 51 45 41 38 40 45 43 33 28 32 35 32 36 36 36 32 31 31 32 32 32 32 31
25 27 29 28 36 35 35 35 43 48 61 61 53 42 41 40 39 41 38 33 32 32 32 32 29 32 35 34 33 31 29 29 30 30 30 30 29 29
26 25 22 20 24 26 33 29 31 42 53 52 45 44 37 36 44 47 38 36 33 31 28 30 32 31 31 28 27 27 27 28 29 28 29 29 27 24
26 24 21 18 17 19 29 24 36 40 43 37 37 42 41 47 48 43 36 34 31 27 27 29 30 27 24 25 26 26 26 26 28 29 28 28 27 27
28 24 23 19 18 22 25 22 30 34 37 35 34 35 41 40 31 30 31 28 27 31 31 27 23 21 23 23 24 25 25 26 27 26 27 27 28 28
30 26 25 21 18 13 18 22 25 28 25 20 18 23 24 25 26 26 27 28 29 27 23 18 19 21 22 22 23 24 26 24 25 25 25 29 29 28
29 28 26 23 20 18 19 23 25 24 23 21 24 25 27 29 30 29 29 27 25 19 16 19 19 19 20 22 22 23 23 24 25 26 26 27 29 26
29 28 26 24 20 24 23 23 25 28 25 29 33 29 27 30 31 28 25 20 14 16 17 17 18 19 20 20 21 22 23 24 26 27 27 24 24 23
33 33 29 26 27 27 24 28 30 32 33 33 32 29 27 27 24 20 15 13 14 15 16 17 17 17 18 20 22 22 23 24 25 26 25 22 18 20
34 33 31 29 29 32 34 35 36 35 34 30 27 24 23 20 13 12 13 12 13 15 15 16 17 18 19 21 22 23 23 24 24 24 23 19 18 21
36 37 37 37 40 40 39 35 30 26 25 24 23 19 12 11 12 12 12 13 14 13 14 15 16 17 19 21 22 25 24 22 22 21 19 18 20 21
37 36 35 32 30 28 26 25 24 23 23 19 14 12 11 11 11 12 12 12 13 13 14 15 17 19 20 21 21 22 23 22 20 20 19 18 18 19
24 26 27 27 27 26 26 25 25 20 17 15 14 12 12 12 11 11 11 11 12 13 15 17 19 20 21 22 22 22 20 18 20 21 22 19 18 18

GFSNE_700_spd_135.txt.gz
Wind_Speed
34 34 36 33 34 42 41 50 36 44 37 44 41 35 39 39 41 42 39 36 35 36 32 27 25 23 22 19 22 27 29 30 31 34 30 35 37 37
35 35 35 32 34 41 41 40 54 40 40 46 49 38 37 41 43 41 42 40 38 38 36 31 30 31 28 26 29 30 34 35 32 30 30 31 31 31
36 34 33 30 34 37 40 47 51 49 52 46 48 44 36 37 39 41 41 40 39 39 37 33 35 34 33 38 33 37 39 40 37 32 30 31 32 38
35 32 32 33 31 35 42 39 50 50 51 55 49 48 46 40 35 37 39 41 40 39 38 37 37 35 34 38 33 36 41 42 42 32 30 35 37 41
33 31 32 31 33 34 32 44 36 42 50 56 53 52 50 42 39 39 39 37 36 33 38 39 37 35 43 41 39 42 45 43 36 30 33 37 41 42
32 32 32 32 30 32 32 35 34 37 37 43 59 52 47 41 41 40 40 38 37 38 40 40 38 42 38 41 42 47 43 35 31 32 36 39 42 42
32 32 33 32 30 30 24 29 36 39 43 37 57 51 50 47 45 40 40 38 42 42 41 42 40 42 36 42 43 44 41 35 33 35 39 42 42 40
33 33 34 33 30 29 31 27 25 35 35 41 55 57 49 50 48 47 45 45 41 47 44 45 45 40 39 45 43 43 37 35 35 37 42 41 39 37
35 33 32 34 32 32 32 30 26 35 45 38 46 56 54 49 47 48 45 43 41 41 37 39 40 37 31 41 41 39 33 34 35 41 39 37 35 36
34 34 31 32 34 35 30 33 30 32 44 41 49 51 53 48 48 44 40 37 33 32 43 40 37 41 44 42 33 32 33 33 38 37 35 34 34 35
35 32 31 32 32 33 33 34 36 33 35 39 46 47 37 45 46 38 44 49 48 36 44 44 39 45 47 36 33 32 32 35 35 33 32 32 33 33
37 34 35 33 33 35 34 36 37 39 35 40 41 50 42 43 41 43 43 39 42 39 42 37 37 39 34 34 31 32 33 32 29 30 31 31 31 30
36 36 34 31 29 31 35 40 39 36 36 38 35 54 47 40 42 45 46 47 42 38 37 34 35 33 31 31 31 30 30 27 28 28 29 29 28 28
35 36 32 31 30 30 30 34 35 31 32 27 42 55 53 60 54 47 42 39 37 44 43 36 33 29 29 31 29 27 24 25 26 26 27 27 27 27
35 34 32 32 31 31 29 25 24 29 28 24 37 47 50 39 42 39 48 45 43 46 42 36 28 30 30 28 23 22 23 25 24 25 27 26 27 27
33 33 32 33 31 30 26 22 21 24 20 21 37 43 38 40 34 38 41 35 38 37 31 28 28 27 24 20 21 21 22 22 23 24 26 26 26 26
32 33 33 32 31 29 25 21 23 25 23 25 29 31 29 29 31 31 30 29 28 28 29 28 25 20 17 19 20 21 20 21 23 24 24 26 26 26
28 34 33 32 30 26 23 18 17 21 23 25 26 26 23 21 22 25 28 27 28 28 26 21 17 16 18 19 18 19 20 22 23 22 22 23 26 27
31 33 32 30 28 27 24 22 21 23 24 25 26 25 25 28 30 28 27 28 27 22 16 14 16 17 17 16 17 18 20 20 22 23 23 23 23 27
37 32 33 32 33 33 23 27 26 26 28 28 32 33 33 33 31 28 26 24 18 13 13 15 14 14 15 16 17 18 19 20 21 23 24 25 24 24
40 40 40 37 33 31 35 34 36 36 35 37 37 33 30 28 26 22 17 12 12 12 11 13 15 14 15 16 18 19 19 19 21 23 24 25 24 25
40 41 38 39 38 40 40 38 37 35 33 30 27 26 25 23 17 14 13 12 13 12 13 12 12 13 15 17 19 21 22 22 22 24 24 24 23 20
29 31 30 32 32 33 31 27 27 26 26 27 26 21 17 15 17 16 11 9 11 10 10 12 13 14 16 17 18 19 20 23 25 26 26 22 21 20

GFSNE_700_spd_141.txt.gz
Wind_Speed
40 41 39 40 41 38 38 33 31 34 27 27 31 32 31 37 39 41 40 35 37 37 34 34 34 32 32 30 29 29 27 25 25 27 30 26 27 26
37 41 41 41 41 39 38 37 36 32 35 33 29 30 29 31 32 34 45 42 41 39 39 37 37 35 35 33 32 32 31 30 30 33 36 35 33 31
39 38 40 43 42 39 38 39 36 36 37 42 30 30 32 31 35 36 42 42 46 41 42 38 41 39 38 37 36 35 32 34 35 37 34 36 36 41
42 42 42 44 43 41 41 36 36 36 37 40 32 31 33 35 30 34 41 46 45 44 43 42 44 42 42 41 40 38 36 34 41 37 44 37 38 40
39 39 42 45 45 45 44 38 35 35 36 32 32 31 35 34 36 39 34 47 46 47 45 43 45 45 45 43 43 41 42 37 37 43 48 46 43 42
36 34 39 48 45 46 42 37 36 35 35 32 37 32 36 31 34 33 40 41 51 52 50 44 45 43 44 45 42 44 44 43 39 50 48 46 47 43
37 40 34 39 42 45 43 40 38 36 34 37 38 33 32 37 33 35 33 40 57 55 51 47 46 44 45 44 43 45 45 42 46 48 51 43 43 41
37 32 32 37 43 45 42 41 38 36 33 36 39 35 34 32 32 32 34 42 55 60 54 52 43 41 43 49 43 42 45 42 51 48 54 42 39 44
41 42 40 38 37 40 39 38 37 35 37 35 37 33 31 28 25 28 28 30 41 56 54 56 53 43 42 46 44 47 45 50 48 48 45 46 43 41
48 45 43 40 38 36 38 38 36 35 34 36 34 33 30 32 33 28 28 31 34 60 58 54 51 49 46 52 42 44 50 49 53 47 45 42 39 37
43 37 48 45 43 36 37 37 36 35 35 33 36 32 32 32 32 32 29 28 43 49 60 62 49 52 49 56 50 49 49 47 45 39 37 43 38 33
35 52 45 39 37 35 35 37 36 33 35 34 31 33 33 34 32 31 33 33 34 40 60 62 45 55 55 57 54 50 48 44 45 40 40 36 32 32
32 44 42 45 40 40 42 41 36 33 34 33 29 36 33 36 37 35 34 38 40 41 44 63 49 51 53 55 53 44 37 43 43 38 37 33 31 26
33 32 43 45 39 44 39 38 35 34 36 38 36 37 40 41 39 37 38 40 38 37 36 57 45 34 45 50 50 48 38 35 36 36 32 31 24 17
35 40 36 44 44 42 42 39 37 40 38 38 34 34 38 40 42 42 44 36 37 35 33 55 57 46 49 47 38 30 33 35 35 31 30 22 17 20
34 39 36 35 38 45 38 34 38 36 37 34 34 35 39 37 36 35 33 34 35 32 35 41 46 39 39 39 37 35 37 34 32 29 19 16 19 22
36 37 40 40 39 38 33 35 35 36 37 35 35 34 35 32 30 32 31 30 29 29 32 32 35 42 44 42 38 37 36 33 28 17 14 18 21 20
38 34 43 46 45 37 39 35 35 34 33 31 31 32 31 26 29 31 32 29 23 22 21 23 31 39 43 40 36 33 31 23 15 13 18 19 19 19
37 37 39 44 45 42 40 34 28 28 27 27 29 30 26 26 25 22 21 24 22 25 26 29 31 33 32 30 30 26 18 13 13 18 17 17 20 19
37 37 41 42 48 43 39 37 32 29 27 26 25 28 26 27 25 23 24 24 23 25 27 29 30 31 31 28 23 16 14 15 15 14 17 18 19 20
33 36 38 41 45 44 41 41 35 31 31 27 24 25 25 27 27 27 27 27 27 28 30 31 31 28 21 18 15 12 12 13 15 16 16 16 18 19
30 32 36 40 41 38 37 39 40 34 37 32 29 30 31 31 31 32 33 32 32 31 29 28 25 20 16 14 11 13 13 13 15 15 15 16 18 19
29 31 34 37 38 34 34 34 36 39 40 38 37 38 38 35 35 34 34 32 29 28 25 20 17 17 16 15 13 10 11 14 14 14 15 16 18 19

GFSNE_700_spd_144.txt.gz
Wind_Speed
38 40 42 40 40 40 37 35 42 39 33 28 24 26 31 34 37 39 33 34 35 35 37 37 37 36 34 32 31 33 32 27 27 25 24 24 27 30
35 38 38 39 40 40 40 40 40 40 38 33 28 28 28 33 37 38 31 34 37 43 39 38 39 39 39 35 33 34 34 32 33 32 31 31 33 32
35 35 36 37 39 41 41 42 40 40 39 38 35 30 28 29 36 37 32 34 35 36 44 47 42 41 42 40 36 36 37 35 36 35 36 36 38 37
35 36 36 37 38 38 40 43 40 40 39 39 38 34 29 33 33 35 37 34 40 42 42 50 49 44 44 43 42 39 40 40 39 36 37 38 40 40
35 38 39 40 41 42 42 41 40 41 42 40 39 33 33 29 31 33 39 34 34 35 41 53 46 44 45 45 46 42 43 43 41 39 39 40 43 39
39 39 38 41 40 41 45 42 42 42 42 41 40 36 34 33 31 31 36 30 34 38 33 42 48 47 47 47 46 44 46 45 44 44 41 44 47 48
40 40 38 40 39 36 37 44 45 48 47 46 39 37 37 35 33 28 30 34 36 34 46 49 49 51 50 49 48 45 48 45 46 45 46 46 51 53
42 42 35 42 43 37 39 36 47 47 47 46 39 39 36 38 33 33 32 30 32 35 35 52 53 56 55 54 51 50 49 48 42 41 49 48 52 51
37 42 44 42 38 37 32 33 42 45 46 46 39 38 37 33 31 29 32 27 29 24 31 33 47 63 62 55 48 47 45 49 48 48 46 49 52 54
36 39 40 45 47 40 40 38 38 44 44 43 40 37 37 33 30 32 33 33 30 28 28 32 32 54 63 61 53 48 47 45 50 49 51 50 53 52
32 33 34 37 40 36 38 48 31 37 40 39 39 37 36 34 36 36 35 35 34 31 29 33 35 35 63 64 59 55 52 52 47 49 51 54 49 48
30 30 31 33 41 49 46 50 40 39 37 36 36 37 36 31 36 35 34 36 32 33 30 31 32 38 55 67 60 57 60 55 53 56 49 52 47 44
30 31 32 31 34 47 43 51 45 42 38 43 40 37 36 37 36 34 33 37 37 39 35 29 35 36 37 59 67 58 54 59 56 57 53 48 44 40
32 31 34 35 35 38 51 44 38 41 41 40 39 39 39 36 34 32 33 37 35 34 36 36 40 37 35 41 63 61 48 51 57 54 46 44 42 38
38 35 32 35 34 36 38 47 49 45 42 48 45 42 40 35 40 38 36 38 42 44 43 41 42 37 36 36 53 47 37 45 48 43 41 38 35 35
40 39 37 35 36 37 42 47 49 49 45 45 49 44 42 40 37 35 35 36 37 39 38 43 37 36 35 34 49 48 46 42 40 36 35 35 34 31
42 40 40 38 38 38 43 40 50 48 49 45 41 39 39 37 37 37 37 37 37 37 39 35 33 31 32 37 43 39 38 38 34 34 33 32 31 22
44 42 42 41 39 39 40 43 45 50 52 41 38 37 40 38 39 38 36 34 34 35 33 30 28 25 27 31 35 36 39 37 33 31 32 28 21 15
42 43 43 43 40 42 41 46 43 44 38 40 39 40 40 39 34 36 36 30 31 32 30 22 20 21 23 27 33 36 34 33 32 31 24 19 12 15
42 42 43 44 42 43 44 42 47 41 41 42 38 38 36 35 35 35 30 31 29 29 26 24 24 23 23 25 29 31 32 33 29 21 14 12 17 19
39 40 40 42 42 43 45 41 44 46 43 43 40 40 33 34 35 33 32 30 26 28 28 27 27 27 28 30 31 31 30 22 18 14 16 16 19 20
35 38 37 38 39 41 42 45 46 45 40 45 43 43 35 31 34 34 33 32 32 29 27 28 31 31 31 30 28 24 20 19 17 15 14 17 19 20
31 32 33 32 33 34 36 40 42 44 39 39 41 43 39 35 37 37 35 33 32 32 31 30 32 32 32 26 22 22 19 16 13 13 16 17 18 19

GFSNE_700_spd_147.txt.gz
Wind_Speed
35 32 36 47 36 38 40 40 39 40 41 36 31 28 26 26 25 26 30 36 35 37 36 28 41 36 37 37 35 35 34 32 31 28 27 29 28 27
38 36 36 37 37 39 39 41 42 39 42 36 36 34 32 28 26 25 29 34 38 37 33 30 35 39 38 39 39 37 37 36 34 32 32 33 32 31
37 38 38 35 37 38 37 41 42 41 39 40 38 40 34 30 27 28 32 33 35 36 34 35 34 43 42 42 42 42 40 38 38 35 36 37 37 36
36 38 38 36 36 35 35 39 41 41 41 39 40 40 42 35 33 34 32 36 35 36 34 35 40 40 46 45 43 45 44 42 39 40 39 40 41 37
33 37 38 38 37 36 35 36 36 36 40 41 43 44 43 39 35 34 32 32 34 35 37 32 39 47 48 51 53 55 46 45 43 42 45 43 42 41
31 33 36 36 38 38 37 38 40 37 39 40 44 46 45 41 38 36 34 33 32 31 36 38 36 41 43 54 58 52 52 47 47 44 46 46 44 44
37 35 36 35 36 41 39 37 37 41 44 43 44 43 46 41 33 37 35 33 34 35 35 38 38 39 45 42 48 51 52 48 48 47 48 47 45 43
38 40 37 34 40 42 41 37 40 42 39 42 48 48 48 42 41 39 37 32 36 35 32 34 35 40 43 55 58 52 53 53 51 51 55 46 47 49
36 37 34 37 33 39 40 41 44 43 40 44 46 48 42 42 41 38 37 35 38 35 38 36 37 36 37 37 53 59 57 55 55 53 54 50 51 49
31 33 34 34 35 36 40 41 40 39 45 41 41 42 45 48 43 39 38 37 38 36 40 39 37 35 33 27 37 55 58 65 57 49 53 44 52 49
29 31 32 32 33 37 42 42 47 45 45 42 42 43 44 42 40 40 41 40 39 37 37 36 35 34 33 34 36 33 52 65 65 53 55 54 49 50
32 29 29 30 31 34 39 40 42 39 39 49 52 42 31 41 42 39 41 36 40 39 35 34 34 33 34 34 32 37 39 56 67 61 54 64 57 49
33 33 31 31 31 32 34 38 38 43 43 40 35 39 43 38 39 38 37 38 34 38 39 35 36 38 39 36 33 35 35 42 62 68 60 58 63 63
35 35 35 34 34 33 36 36 37 36 47 43 43 45 40 44 38 37 39 41 38 39 37 38 38 38 38 37 40 37 38 39 50 66 63 58 58 59
39 38 38 37 37 36 36 38 37 37 38 45 46 53 48 47 44 45 41 43 37 37 40 35 38 38 45 45 45 41 39 35 38 53 60 50 50 49
43 42 41 40 39 39 38 37 38 35 37 40 47 50 46 44 44 44 43 39 44 36 45 39 38 40 42 42 44 41 40 35 33 41 51 45 41 40
46 45 43 43 42 41 41 40 39 39 38 42 46 48 40 48 49 50 42 46 42 43 38 39 40 41 40 45 41 38 36 34 32 34 37 33 36 37
45 45 45 44 44 42 41 42 41 40 38 42 43 51 48 52 44 42 47 48 37 36 40 40 41 39 41 39 36 35 33 28 29 32 34 34 34 33
41 41 42 43 43 43 41 41 42 42 38 39 42 47 51 53 44 47 46 49 41 42 41 41 37 41 37 33 28 26 27 31 31 31 32 31 29 28
39 39 38 40 41 42 42 41 42 42 43 40 45 43 47 47 48 52 50 42 41 39 41 37 37 36 33 28 23 21 23 27 26 29 30 29 28 28
35 36 37 37 38 39 40 40 41 41 42 44 42 48 45 43 41 42 43 42 42 42 39 37 37 35 29 25 25 24 23 25 29 29 28 29 28 23
30 31 32 33 33 34 36 37 38 39 39 41 42 41 42 43 43 43 43 41 43 42 37 38 34 33 30 29 26 25 26 29 28 27 28 25 18 14
23 26 27 29 30 31 32 33 33 35 35 38 40 39 40 38 42 43 42 40 40 37 36 37 36 35 31 29 27 28 28 27 27 25 20 15 11 9

GFSNE_700_spd_150.txt.gz
Wind_Speed
37 35 35 36 33 41 45 46 40 41 31 36 37 31 29 29 26 23 23 21 21 28 28 26 25 25 30 33 45 36 35 34 34 34 33 33 30 31
43 30 40 39 32 24 43 46 40 33 37 39 37 35 28 33 29 26 25 20 23 25 31 33 32 30 31 31 34 36 37 37 37 37 36 36 33 33
25 25 27 34 32 30 33 34 50 34 38 38 38 40 31 34 32 30 28 25 24 25 28 32 35 33 30 29 35 39 39 40 39 40 39 37 37 35
27 30 33 34 34 33 32 32 35 33 37 41 38 41 42 37 34 31 27 27 29 29 31 30 32 32 30 29 37 42 40 42 42 43 43 42 36 40
30 31 31 33 35 34 32 35 35 36 36 39 40 42 38 39 31 35 33 33 34 34 30 31 30 32 31 31 35 45 42 50 47 47 46 45 43 42
29 29 28 27 30 31 34 36 37 40 40 40 39 42 40 41 37 36 34 32 39 35 35 29 31 31 36 37 35 41 52 50 53 56 55 47 46 45
26 27 27 31 31 32 31 31 38 37 41 38 35 44 39 38 39 37 38 38 34 33 34 32 32 29 36 40 34 36 42 46 52 54 53 51 47 46
27 29 30 31 33 32 33 36 37 38 40 41 40 37 35 37 38 39 38 41 37 36 34 35 34 36 37 38 39 40 38 40 50 52 50 48 52 50
28 28 30 33 35 36 34 35 41 41 43 38 38 39 41 36 37 43 42 40 43 39 38 36 38 40 41 39 38 38 38 42 45 56 51 49 55 52
25 26 26 27 31 33 35 36 37 39 42 42 44 48 47 45 38 38 41 47 44 39 41 41 40 41 39 36 36 35 33 32 37 62 59 50 57 55
25 26 26 27 30 33 32 34 35 34 38 41 41 46 39 41 42 37 38 40 47 45 44 41 39 39 38 33 32 35 33 32 36 40 58 56 61 57
29 30 30 31 31 33 33 33 33 31 35 40 43 44 42 43 46 43 45 44 42 44 43 42 40 37 38 37 33 35 33 32 31 31 34 51 59 69
31 32 33 35 35 34 34 33 32 32 32 34 36 41 42 44 44 44 50 37 41 43 40 42 37 39 38 36 34 35 35 34 31 30 30 35 48 67
30 31 32 36 37 37 38 36 34 32 33 33 35 36 42 41 41 36 34 40 37 41 38 36 41 37 37 38 38 35 36 37 33 33 34 35 40 51
32 32 34 35 36 37 40 40 38 35 34 36 38 36 37 44 43 43 44 43 46 43 37 36 41 37 38 41 34 34 36 39 43 41 39 37 34 43
35 35 36 38 38 39 40 41 40 40 38 37 37 36 37 38 43 46 48 46 45 48 46 37 40 40 38 39 39 42 41 41 41 39 38 36 34 37
35 38 38 39 39 40 41 42 41 41 41 40 37 37 35 36 43 44 43 44 46 52 47 48 37 42 41 43 40 38 41 41 42 41 37 36 33 30
37 38 39 39 40 42 42 42 43 42 41 41 41 39 42 36 41 41 42 47 47 42 41 43 46 44 41 38 35 41 42 40 40 36 34 33 28 25
38 38 38 39 39 40 43 44 44 44 42 41 42 43 41 41 40 40 41 43 43 46 39 48 43 42 39 38 39 42 38 38 35 31 27 25 24 25
36 38 37 35 36 36 39 42 43 44 44 43 42 43 43 43 36 37 41 46 44 36 43 43 44 47 42 39 41 38 36 33 29 26 25 24 25 26
33 34 36 36 35 35 34 39 42 41 42 42 42 42 43 42 42 39 40 43 46 44 47 49 44 44 44 41 39 35 36 31 28 25 24 24 24 25
32 32 32 31 31 32 32 34 37 38 37 38 39 38 39 38 38 39 39 42 43 41 42 42 43 45 43 39 33 33 32 30 28 26 26 24 24 24
28 28 27 28 27 26 27 29 30 32 32 32 32 32 33 36 34 35 35 35 40 40 38 38 41 41 39 35 31 30 30 27 24 25 27 26 24 23